| time (UTC) | temp F | wind direction | speed MPH | gust MPH | rain 1hr in | rain 24hr in | rain mn in | humidity % | barometer mb |
| 20260903164554 | 75 | 217 | 3.0 | 8.0 | 0.00 | 0.29 | 0.29 | 95 | 1013.7 |
| 20260903163043 | 74 | 278 | 3.0 | 8.0 | 0.00 | 0.29 | 0.29 | 97 | 1013.6 |
| 20260903161549 | 74 | 222 | 4.0 | 10.0 | 0.00 | 0.29 | 0.29 | 98 | 1013.7 |
| 20260903160045 | 74 | 217 | 2.0 | 8.0 | 0.00 | 0.29 | 0.29 | 99 | 1013.8 |
| 20260903154545 | 73 | 223 | 1.0 | 3.0 | 0.00 | 0.29 | 0.29 | 100 | 1013.7 |
| 20260903153049 | 73 | 218 | 1.0 | 4.0 | 0.00 | 0.29 | 0.29 | 100 | 1013.9 |
| 20260903151544 | 72 | 261 | 1.0 | 5.0 | 0.00 | 0.29 | 0.29 | 100 | 1014.2 |
| 20260903144549 | 71 | 0 | 0.0 | 6.0 | 0.01 | 0.29 | 0.29 | 100 | 1014.6 |
| 20260903143102 | 71 | 279 | 0.0 | 4.0 | 0.01 | 0.29 | 0.29 | 100 | 1014.9 |
| 20260903141546 | 71 | 273 | 1.0 | 4.0 | 0.01 | 0.29 | 0.29 | 100 | 1015.1 |
| 20260903140055 | 71 | 275 | 1.0 | 6.0 | 0.02 | 0.28 | 0.28 | 100 | 1015.5 |
| 20260903134553 | 71 | 209 | 1.0 | 4.0 | 0.02 | 0.28 | 0.28 | 100 | 1015.4 |
| 20260903133047 | 71 | 263 | 0.0 | 3.0 | 0.02 | 0.28 | 0.28 | 100 | 1015.4 |
| 20260903131551 | 70 | 205 | 0.0 | 4.0 | 0.02 | 0.28 | 0.28 | 100 | 1015.5 |
| 20260903130057 | 70 | 198 | 1.0 | 4.0 | 0.00 | 0.26 | 0.26 | 100 | 1015.4 |
| 20260903124550 | 70 | 182 | 0.0 | 5.0 | 0.00 | 0.26 | 0.26 | 100 | 1015.3 |
| 20260903123046 | 70 | 227 | 1.0 | 7.0 | 0.01 | 0.26 | 0.26 | 100 | 1015.6 |
| 20260903121545 | 70 | 261 | 2.0 | 5.0 | 0.02 | 0.26 | 0.26 | 100 | 1015.8 |
| 20260903120050 | 70 | 0 | 2.0 | 10.0 | 0.02 | 0.26 | 0.26 | 100 | 1015.8 |
| 20260903114548 | 70 | 219 | 2.0 | 8.0 | 0.03 | 0.26 | 0.26 | 100 | 1015.9 |
| 20260903113046 | 69 | 263 | 1.0 | 4.0 | 0.02 | 0.25 | 0.25 | 100 | 1016.0 |
| 20260903111546 | 69 | 200 | 1.0 | 6.0 | 0.01 | 0.24 | 0.24 | 100 | 1015.9 |
| 20260903110047 | 69 | 175 | 2.0 | 9.0 | 0.02 | 0.24 | 0.24 | 99 | 1015.9 |
| 20260903104550 | 69 | 174 | 2.0 | 9.0 | 0.02 | 0.23 | 0.23 | 99 | 1015.9 |
| 20260903103048 | 68 | 126 | 2.0 | 7.0 | 0.06 | 0.23 | 0.23 | 99 | 1015.6 |
| 20260903101546 | 68 | 138 | 1.0 | 5.0 | 0.11 | 0.23 | 0.23 | 99 | 1015.6 |
| 20260903100045 | 67 | 139 | 1.0 | 5.0 | 0.16 | 0.22 | 0.22 | 99 | 1015.7 |
| 20260903094549 | 67 | 178 | 1.0 | 6.0 | 0.19 | 0.21 | 0.21 | 99 | 1015.7 |
| 20260903093054 | 67 | 203 | 2.0 | 7.0 | 0.15 | 0.17 | 0.17 | 98 | 1015.6 |
| 20260903091545 | 67 | 141 | 2.0 | 8.0 | 0.09 | 0.11 | 0.11 | 98 | 1015.8 |
| 20260903090044 | 67 | 0 | 1.0 | 6.0 | 0.04 | 0.06 | 0.06 | 98 | 1015.9 |
| 20260903084548 | 66 | 144 | 1.0 | 6.0 | 0.00 | 0.02 | 0.02 | 98 | 1016.0 |
| 20260903083046 | 66 | 126 | 1.0 | 6.0 | 0.01 | 0.02 | 0.02 | 97 | 1016.1 |
| 20260903081547 | 66 | 113 | 0.0 | 4.0 | 0.01 | 0.02 | 0.02 | 97 | 1016.2 |
| 20260903080054 | 65 | 150 | 1.0 | 4.0 | 0.01 | 0.02 | 0.02 | 96 | 1016.1 |
| 20260903074547 | 65 | 0 | 1.0 | 5.0 | 0.02 | 0.02 | 0.02 | 96 | 1016.6 |
| 20260903073057 | 65 | 0 | 0.0 | 6.0 | 0.01 | 0.01 | 0.01 | 95 | 1016.8 |
| 20260903071553 | 65 | 0 | 0.0 | 5.0 | 0.01 | 0.01 | 0.01 | 94 | 1017.0 |
| 20260903070047 | 66 | 0 | 0.0 | 5.0 | 0.01 | 0.01 | 0.01 | 94 | 1017.4 |
| 20260903064545 | 66 | 133 | 0.0 | 4.0 | 0.00 | 0.00 | 0.00 | 93 | 1017.6 |
| 20260903063053 | 66 | 160 | 0.0 | 2.0 | 0.00 | 0.00 | 0.00 | 91 | 1017.8 |
| 20260903061550 | 66 | 0 | 0.0 | 3.0 | 0.00 | 0.00 | 0.00 | 90 | 1017.9 |
| 20260903060047 | 66 | 142 | 1.0 | 5.0 | 0.00 | 0.00 | 0.00 | 89 | 1018.1 |
| 20260903054544 | 66 | 136 | 0.0 | 4.0 | 0.00 | 0.00 | 0.00 | 89 | 1018.4 |
| 20260903053046 | 66 | 0 | 1.0 | 5.0 | 0.00 | 0.00 | 0.00 | 89 | 1018.6 |
| 20260903051551 | 65 | 157 | 1.0 | 4.0 | 0.00 | 0.00 | 0.00 | 88 | 1018.7 |
| 20260903050045 | 65 | 0 | 0.0 | 3.0 | 0.00 | 0.00 | 0.00 | 88 | 1018.8 |
| 20260903044550 | 65 | 0 | 0.0 | 5.0 | 0.00 | 0.00 | 0.00 | 88 | 1019.2 |
| 20260903043047 | 64 | 0 | 1.0 | 5.0 | 0.00 | 0.00 | 0.00 | 87 | 1019.0 |
| 20260903041544 | 64 | 151 | 1.0 | 5.0 | 0.00 | 0.00 | 0.00 | 86 | 1018.9 |
| 20260903040053 | 64 | 171 | 0.0 | 5.0 | 0.00 | 0.00 | 0.00 | 85 | 1018.9 |
| 20260903034548 | 63 | 163 | 1.0 | 4.0 | 0.00 | 0.00 | 0.00 | 85 | 1018.8 |
| 20260903033045 | 63 | 0 | 1.0 | 5.0 | 0.00 | 0.00 | 0.00 | 85 | 1019.2 |
| 20260903031544 | 63 | 159 | 0.0 | 4.0 | 0.00 | 0.00 | 0.00 | 87 | 1019.6 |
| 20260903030047 | 63 | 0 | 0.0 | 2.0 | 0.00 | 0.00 | 0.00 | 87 | 1019.7 |
| 20260903024548 | 64 | 0 | 0.0 | 4.0 | 0.00 | 0.00 | 0.00 | 85 | 1019.9 |
| 20260903023102 | 64 | 0 | 0.0 | 6.0 | 0.00 | 0.00 | 0.00 | 85 | 1019.8 |
| 20260903021549 | 63 | 148 | 0.0 | 5.0 | 0.00 | 0.00 | 0.00 | 86 | 1019.5 |
| 20260903020050 | 63 | 148 | 1.0 | 5.0 | 0.00 | 0.00 | 0.00 | 87 | 1019.9 |
| 20260903014549 | 63 | 146 | 0.0 | 4.0 | 0.00 | 0.00 | 0.00 | 86 | 1020.0 |
| 20260903013045 | 64 | 153 | 0.0 | 4.0 | 0.00 | 0.00 | 0.00 | 86 | 1020.3 |
| 20260903011555 | 64 | 0 | 0.0 | 3.0 | 0.00 | 0.00 | 0.00 | 84 | 1020.3 |
| 20260903010051 | 64 | 0 | 0.0 | 4.0 | 0.00 | 0.00 | 0.00 | 83 | 1020.1 |
| 20260903004546 | 65 | 169 | 0.0 | 2.0 | 0.00 | 0.01 | 0.00 | 82 | 1020.0 |
| 20260903003050 | 65 | 0 | 0.0 | 2.0 | 0.00 | 0.01 | 0.00 | 81 | 1020.2 |
| 20260903001549 | 65 | 0 | 0.0 | 2.0 | 0.00 | 0.01 | 0.00 | 81 | 1020.4 |
| 20260903000045 | 66 | 0 | 0.0 | 3.0 | 0.00 | 0.01 | 0.00 | 80 | 1020.6 |
| 20260902234546 | 66 | 0 | 0.0 | 4.0 | 0.00 | 0.01 | 0.00 | 79 | 1020.9 |
| 20260902233052 | 67 | 0 | 0.0 | 1.0 | 0.00 | 0.01 | 0.00 | 79 | 1020.9 |
| 20260902231558 | 67 | 140 | 0.0 | 4.0 | 0.00 | 0.01 | 0.00 | 79 | 1021.1 |
| 20260902230046 | 67 | 0 | 0.0 | 3.0 | 0.00 | 0.01 | 0.00 | 79 | 1021.0 |
| 20260902224552 | 68 | 135 | 0.0 | 2.0 | 0.00 | 0.01 | 0.00 | 79 | 1021.2 |
| 20260902223047 | 68 | 0 | 0.0 | 2.0 | 0.00 | 0.01 | 0.00 | 78 | 1021.2 |
| 20260902221553 | 69 | 136 | 0.0 | 4.0 | 0.00 | 0.01 | 0.00 | 77 | 1020.9 |
| 20260902220052 | 69 | 0 | 0.0 | 3.0 | 0.00 | 0.01 | 0.00 | 76 | 1020.9 |
| 20260902214548 | 69 | 0 | 0.0 | 7.0 | 0.00 | 0.01 | 0.00 | 75 | 1020.8 |
| 20260902213051 | 69 | 144 | 0.0 | 4.0 | 0.00 | 0.01 | 0.00 | 75 | 1020.5 |
| 20260902211547 | 70 | 0 | 0.0 | 4.0 | 0.00 | 0.01 | 0.00 | 73 | 1020.9 |
| 20260902210047 | 70 | 165 | 0.0 | 7.0 | 0.00 | 0.01 | 0.00 | 77 | 1020.9 |
| 20260902204546 | 71 | 0 | 1.0 | 5.0 | 0.00 | 0.02 | 0.00 | 76 | 1020.9 |
| 20260902203103 | 71 | 0 | 1.0 | 8.0 | 0.00 | 0.02 | 0.00 | 74 | 1021.0 |
| 20260902201549 | 72 | 154 | 2.0 | 8.0 | 0.00 | 0.02 | 0.00 | 71 | 1020.9 |
| 20260902200056 | 75 | 173 | 3.0 | 9.0 | 0.00 | 0.02 | 0.00 | 64 | 1021.2 |
| 20260902194543 | 76 | 94 | 2.0 | 7.0 | 0.00 | 0.05 | 0.00 | 62 | 1021.4 |
| 20260902193103 | 76 | 175 | 3.0 | 7.0 | 0.00 | 0.05 | 0.00 | 66 | 1021.3 |
| 20260902191605 | 75 | 174 | 2.0 | 11.0 | 0.00 | 0.05 | 0.00 | 65 | 1021.4 |
| 20260902190056 | 75 | 164 | 1.0 | 8.0 | 0.00 | 0.05 | 0.00 | 64 | 1021.4 |
| 20260902184547 | 74 | 0 | 1.0 | 9.0 | 0.00 | 0.07 | 0.00 | 65 | 1021.2 |
| 20260902183113 | 74 | 162 | 2.0 | 8.0 | 0.00 | 0.07 | 0.00 | 65 | 1021.2 |
| 20260902181547 | 74 | 155 | 2.0 | 8.0 | 0.00 | 0.07 | 0.00 | 63 | 1021.2 |
| 20260902180049 | 73 | 219 | 1.0 | 10.0 | 0.00 | 0.07 | 0.00 | 64 | 1021.4 |
| 20260902174556 | 73 | 0 | 1.0 | 7.0 | 0.00 | 0.07 | 0.00 | 64 | 1021.3 |
| 20260902173056 | 73 | 149 | 2.0 | 8.0 | 0.00 | 0.07 | 0.00 | 61 | 1021.5 |
| 20260902171558 | 74 | 135 | 2.0 | 9.0 | 0.00 | 0.07 | 0.00 | 65 | 1021.6 |
| 20260902170047 | 74 | 134 | 2.0 | 7.0 | 0.00 | 0.07 | 0.00 | 66 | 1021.6 |